Regional Weather Roundup
Issued by NWS

Home | Current Version | Previous Version | Graphics & Text | Print | Product List | Glossary On
Versions: 1 2 3 4 5 6 7 8 9 10 11 12 13 14 15 16 17 18 19 20 21 22 23 24 25 26 27 28 29 30 31 32 33 34 35 36 37 38 39 40 41 42 43 44 45 46 47 48 49 50
000
ASUS43 KBIS 051802
RWRND

NORTH DAKOTA REGIONAL WEATHER ROUNDUP
NATIONAL WEATHER SERVICE BISMARCK ND
1200 PM CST FRI FEB 05 2016

NOTE: "FAIR" INDICATES FEW OR NO CLOUDS BELOW 12,000 FEET WITH NO
SIGNIFICANT WEATHER AND/OR OBSTRUCTIONS TO VISIBILITY.


NDZ001>003-009>011-017-051900-
NORTHWEST NORTH DAKOTA

CITY           SKY/WX    TMP DP  RH WIND       PRES   REMARKS
WILLISTON      SUNNY     29  23  78 SW7       30.16S
6HR MIN TEMP:  13; 6HR MAX TEMP:  29;

MINOT          CLOUDY    30  14  51 SW13      30.13F WCI  20
MINOT AFB      PTSUNNY   29  16  56 W5        30.12F
$$

NDZ018>021-031>035-040>046-051900-
SOUTHWEST NORTH DAKOTA

CITY           SKY/WX    TMP DP  RH WIND       PRES   REMARKS
BISMARCK       SUNNY     36  19  50 NW7       30.19S
6HR MIN TEMP:  27; 6HR MAX TEMP:  36;

DICKINSON      SUNNY     31  23  72 W17       30.13F WCI  19
GARRISON         N/A     30  14  51 W14       30.15S WCI  19
6HR MIN TEMP:  18; 6HR MAX TEMP:  30;

HETTINGER ARPT SUNNY     34  23  64 W18       30.19S
$$

NDZ004>008-012>016-024-026-027-054-051900-
NORTHEAST NORTH DAKOTA

CITY           SKY/WX    TMP DP  RH WIND       PRES   REMARKS
GRAND FORKS    MOSUNNY   23  15  71 NW7       30.15S WCI  15
GRND FRKS AFB  MOSUNNY   22  14  73 N3        30.14S
DEVILS LAKE    CLOUDY    21  16  81 NW8       30.15S WCI  11
$$

NDZ022-023-025-028>030-036>039-047>053-051900-
SOUTHEAST NORTH DAKOTA

CITY           SKY/WX    TMP DP  RH WIND       PRES   REMARKS
FARGO          SUNNY     26  21  81 S10       30.15R WCI  16
6HR MIN TEMP:  18; 6HR MAX TEMP:  26;

JAMESTOWN      PTSUNNY   26  17  68 NW13      30.14R WCI  15
$$




USA.gov is the U.S. government's official web portal to all federal, state and local government web resources and services.